Antalya, Turkey

8:17 PM EET on February 12, 2016 (GMT +0200)
Antalya

Weather History for LTAI - December, 2012

Change the Weather History Date:

Tuesday, December 18, 2012

  Actual Average Record
Temperature  
Mean Temperature 53 °F -  
Max Temperature 58 °F 60 °F - ()
Min Temperature 48 °F 44 °F - ()
Degree Days  
Heating Degree Days 12    
Growing Degree Days 3 (Base 50)    
Moisture  
Dew Point 53 °F    
Average Humidity 95    
Maximum Humidity 100    
Minimum Humidity 82    
Precipitation  
Precipitation 0.47 in 0.30 in - ()
Sea Level Pressure  
Sea Level Pressure 29.79 in    
Wind  
Wind Speed 4 mph ()    
Max Wind Speed 9 mph    
Max Gust Speed -    
Visibility 4.5 miles    
Events Rain , Thunderstorm    
T = Trace of Precipitation, MM = Missing Value Source: Averaged Metar Reports

Daily Weather History Graph

Daily Weather History Graph

Search for Another Location

Airport or City:

Trip Planner

Search our weather history database for the weather conditions in past years. The results will help you decide how hot, cold, wet, or windy it might be!

Date:

Astronomy

Dec. 18, 2012 Rise Set
Actual Time 7:04 AM EET 4:42 PM EET
Civil Twilight 6:35 AM EET 5:11 PM EET
Nautical Twilight 6:03 AM EET 5:44 PM EET
Astronomical Twilight 5:31 AM EET 6:16 PM EET
Moon 10:41 AM EET (12/18) 10:39 PM EET (12/18)
Length of Visible Light 10h 36m
Length of Day
9h 38m
Waxing Crescent, 31% of the Moon is Illuminated
Dec 18
Waxing Crescent
Dec 20
First Quarter
Dec 28
Full
Jan 5
Last Quarter
Jan 11
New

Hourly Weather History & Observations

Time (EET) Temp. Dew Point Humidity Pressure Visibility Wind Dir Wind Speed Gust Speed Precip Events Conditions
2:20 AM 51.8 °F 50.0 °F 94% 29.86 in 6.2 mi North 3.5 mph - N/A   Mostly Cloudy
2:50 AM 51.8 °F 50.0 °F 94% 29.86 in 6.2 mi NW 4.6 mph - N/A   Mostly Cloudy
3:20 AM 51.8 °F 50.0 °F 94% 29.86 in 6.2 mi North 4.6 mph - N/A   Mostly Cloudy
3:50 AM 51.8 °F 50.0 °F 94% 29.83 in 6.2 mi NE 3.5 mph - N/A   Mostly Cloudy
4:20 AM 51.8 °F 50.0 °F 94% 29.83 in 6.2 mi North 4.6 mph - N/A   Mostly Cloudy
4:50 AM 51.8 °F 50.0 °F 94% 29.83 in 6.2 mi WNW 3.5 mph - N/A   Mostly Cloudy
5:20 AM 51.8 °F 50.0 °F 94% 29.80 in 6.2 mi North 5.8 mph - N/A   Mostly Cloudy
5:50 AM 51.8 °F 50.0 °F 94% 29.83 in 6.2 mi NNW 2.3 mph - N/A   Mostly Cloudy
6:20 AM 51.8 °F 50.0 °F 94% 29.83 in 6.2 mi NNW 3.5 mph - N/A   Mostly Cloudy
6:50 AM 51.8 °F 50.0 °F 94% 29.83 in 4.3 mi NE 4.6 mph - N/A Rain Light Rain Showers
7:20 AM 51.8 °F 50.0 °F 94% 29.83 in 3.7 mi North 3.5 mph - N/A Rain Light Rain Showers
7:50 AM 51.8 °F 50.0 °F 94% 29.83 in 3.7 mi NNW 5.8 mph - N/A Rain Light Rain Showers
8:00 AM 51 °F 50 °F 95% 29.83 in 4 mi NNW 5.8 mph - - Rain Light Rain Showers
8:20 AM 51.8 °F 50.0 °F 94% 29.83 in 1.2 mi NNW 5.8 mph - N/A Rain Light Rain Showers
8:50 AM 51.8 °F 51.8 °F 100% 29.80 in 3.7 mi North 6.9 mph - N/A Rain Light Rain Showers
9:20 AM 51.8 °F 51.8 °F 100% 29.83 in 3.7 mi North 3.5 mph - N/A Rain Light Rain Showers
9:50 AM 53.6 °F 51.8 °F 94% 29.83 in 3.7 mi Variable 1.2 mph - N/A Rain Light Rain Showers
10:20 AM 53.6 °F 51.8 °F 94% 29.83 in 3.7 mi North 5.8 mph - N/A Rain Light Rain Showers
10:50 AM 55.4 °F 53.6 °F 94% 29.83 in 6.2 mi North 5.8 mph - N/A Rain Light Rain Showers
11:20 AM 55.4 °F 53.6 °F 94% 29.83 in 3.1 mi WNW 5.8 mph - N/A Rain Light Rain Showers
11:50 AM 53.6 °F 53.6 °F 100% 29.80 in 3.7 mi North 6.9 mph - N/A Rain Light Rain Showers
12:20 PM 55.4 °F 53.6 °F 94% 29.77 in 6.2 mi NNW 9.2 mph - N/A Rain Light Rain Showers
12:50 PM 55.4 °F 55.4 °F 100% 29.77 in 6.2 mi NNE 6.9 mph - N/A   Mostly Cloudy
1:20 PM 57.2 °F 55.4 °F 94% 29.77 in 6.2 mi NE 3.5 mph - N/A   Mostly Cloudy
1:50 PM 57.2 °F 53.6 °F 88% 29.77 in 6.2 mi ENE 4.6 mph - N/A   Mostly Cloudy
2:00 PM 57 °F 54 °F 85% 29.76 in 6 mi ENE 4.6 mph - -   Partly Cloudy
2:20 PM 57.2 °F 55.4 °F 94% 29.77 in 6.2 mi Variable 2.3 mph - N/A   Mostly Cloudy
2:50 PM 57.2 °F 55.4 °F 94% 29.77 in 6.2 mi Variable 2.3 mph - N/A   Mostly Cloudy
3:20 PM 57.2 °F 53.6 °F 88% 29.77 in 6.2 mi Calm Calm - N/A   Mostly Cloudy
3:50 PM 57.2 °F 51.8 °F 82% 29.77 in 6.2 mi Variable 2.3 mph - N/A   Mostly Cloudy
4:20 PM 57.2 °F 53.6 °F 88% 29.77 in 4.3 mi Calm Calm - N/A   Mostly Cloudy
4:50 PM 57.2 °F 53.6 °F 88% 29.77 in 3.7 mi Variable 2.3 mph - N/A   Mostly Cloudy
5:20 PM 55.4 °F 53.6 °F 94% 29.77 in 5.0 mi West 3.5 mph - N/A   Mostly Cloudy
5:50 PM 55.4 °F 53.6 °F 94% 29.74 in 5.0 mi Variable 2.3 mph - N/A   Mostly Cloudy
6:20 PM 53.6 °F 53.6 °F 100% 29.77 in 6.2 mi Variable 3.5 mph - N/A   Mostly Cloudy
6:50 PM 53.6 °F 53.6 °F 100% 29.77 in 6.2 mi Calm Calm - N/A   Mostly Cloudy
7:20 PM 53.6 °F 53.6 °F 100% 29.77 in 2.5 mi Variable 2.3 mph - N/A   Mostly Cloudy
7:50 PM 55.4 °F 53.6 °F 94% 29.77 in 1.2 mi NNE 2.3 mph - N/A Rain Light Rain
8:00 PM 55 °F 54 °F 94% 29.76 in 1 mi NNE 2.3 mph - - Rain Light Rain
8:20 PM 53.6 °F 53.6 °F 100% 29.74 in 1.2 mi Variable 2.3 mph - N/A Rain Light Rain
8:50 PM 53.6 °F 53.6 °F 100% 29.74 in 1.2 mi NW 5.8 mph - N/A Rain Light Rain
9:20 PM 53.6 °F 53.6 °F 100% 29.74 in 1.2 mi NNE 4.6 mph - N/A Rain Light Rain
9:50 PM 53.6 °F 53.6 °F 100% 29.74 in 1.2 mi North 4.6 mph - N/A Rain Light Rain
10:20 PM 53.6 °F 53.6 °F 100% 29.74 in 3.7 mi NNW 3.5 mph - N/A Rain Light Rain Showers
10:50 PM 53.6 °F 53.6 °F 100% 29.71 in 3.7 mi North 4.6 mph - N/A Rain , Thunderstorm Light Thunderstorms and Rain
11:20 PM 53.6 °F 53.6 °F 100% 29.74 in 3.7 mi NNW 2.3 mph - N/A Rain , Thunderstorm Light Thunderstorms and Rain
11:50 PM 53.6 °F 53.6 °F 100% 29.71 in 3.7 mi Variable 1.2 mph - N/A Rain , Thunderstorm Light Thunderstorms and Rain